Location: Quedlinburg
(51.7921°N, 11.1414°E)
Time: 14:28:24
(UTC+01:00)

PCSat - Visible Passes

Search period start: 14 March 2026 00:00
Search period end: 24 March 2026 00:00
Orbit: 780 x 790 km, 67.0° (Epoch: 14 March)

Date Brightness Start Highest point End Pass type
(mag) Time Alt. Az. Time Alt. Az. Time Alt. Az.
14 Mar 12.1 00:22:21 15° NNE 00:22:21 15° NNE 00:23:18 10° NNE visible
14 Mar 11.7 02:02:56 21° NNW 02:02:56 21° NNW 02:06:30 10° NNE visible
14 Mar 12.0 03:44:24 10° NNW 03:47:44 16° N 03:51:04 10° NE visible
14 Mar 11.5 05:28:15 10° NNW 05:32:52 27° NNE 05:37:28 10° E visible
14 Mar 12.2 23:50:31 12° NE 23:50:31 12° NE 23:50:58 10° NE visible
15 Mar 11.7 01:31:05 22° N 01:31:05 22° N 01:34:07 10° NNE visible
15 Mar 12.0 03:11:42 10° NW 03:15:00 16° N 03:18:18 10° NE visible
15 Mar 11.7 04:55:54 10° NNW 05:00:15 24° NNE 05:04:35 10° E visible
16 Mar 11.8 00:59:13 22° N 00:59:13 22° N 01:01:46 10° NNE visible
16 Mar 12.0 02:39:47 12° NW 02:42:16 16° N 02:45:37 10° NNE visible
16 Mar 11.8 04:23:31 10° NNW 04:27:36 21° NNE 04:31:40 10° ENE visible
17 Mar 11.8 00:27:17 21° NNE 00:27:17 21° NNE 00:29:27 10° NNE visible
17 Mar 11.9 02:07:51 15° NNW 02:09:32 17° N 02:13:01 10° NNE visible
17 Mar 12.0 03:51:06 10° NNW 03:54:56 19° NNE 03:58:44 10° ENE visible
17 Mar 10.7 05:34:23 10° NNW 05:39:36 44° NE 05:44:45 10° ESE visible
17 Mar 11.8 23:55:17 20° NNE 23:55:17 20° NNE 23:57:08 10° NNE visible
18 Mar 11.8 01:35:50 17° NNW 01:36:50 18° NNW 01:40:30 10° NNE visible
18 Mar 12.0 03:18:38 10° NNW 03:22:13 17° NNE 03:25:49 10° NE visible
18 Mar 11.1 05:02:04 10° NNW 05:07:04 36° NE 05:12:04 10° ESE visible
18 Mar 11.8 23:23:11 19° NNE 23:23:11 19° NNE 23:24:48 10° NNE visible
19 Mar 11.8 01:03:44 19° NNW 01:04:08 20° NNW 01:08:03 10° NNE visible
19 Mar 12.1 02:46:05 10° NNW 02:49:30 17° N 02:52:55 10° NE visible
19 Mar 11.4 04:29:45 10° NNW 04:34:32 30° NNE 04:39:18 10° E visible
19 Mar 11.7 22:50:56 19° NNE 22:50:56 19° NNE 22:52:28 10° NE visible
20 Mar 11.7 00:31:28 22° NNW 00:31:28 22° NNW 00:35:39 10° NNE visible
20 Mar 12.2 02:13:28 10° NW 02:16:46 16° N 02:20:05 10° NE visible
20 Mar 11.6 03:57:24 10° NNW 04:01:57 26° NNE 04:06:27 10° E visible
20 Mar 9.7 05:40:34 10° NW 05:46:01 83° NE 05:51:26 10° SE visible
20 Mar 11.4 22:18:25 21° NNE 22:18:25 21° NNE 22:20:08 10° NE visible
20 Mar 11.5 23:58:55 25° NNW 23:58:55 25° NNW 00:03:17 10° NNE visible
21 Mar 12.2 01:40:44 10° NW 01:44:02 16° N 01:47:20 10° NE visible
21 Mar 11.8 03:25:03 10° NNW 03:29:19 23° NNE 03:33:33 10° ENE visible
21 Mar 10.0 05:08:12 10° NW 05:13:37 65° NE 05:18:59 10° SE visible
21 Mar 10.9 21:45:18 28° NE 21:45:18 28° NE 21:47:46 10° NE visible
21 Mar 11.3 23:25:45 28° NW 23:26:14 29° NNW 23:30:56 10° NNE visible
22 Mar 12.2 01:07:56 10° NW 01:11:18 16° N 01:14:40 10° NNE visible
22 Mar 12.0 02:52:39 10° NNW 02:56:39 20° NNE 03:00:38 10° ENE visible
22 Mar 10.4 04:35:53 10° NNW 04:41:11 51° NE 04:46:27 10° ESE visible
22 Mar 11.2 19:25:39 10° SE 19:27:44 12° ESE 19:29:47 10° E visible
22 Mar 9.4 21:04:39 10° SSW 21:09:59 65° ESE 21:15:22 10° NE visible
22 Mar 11.0 22:48:45 10° W 22:53:40 34° NW 22:58:36 10° NNE visible
23 Mar 12.1 00:35:03 10° NW 00:38:34 17° N 00:42:06 10° NNE visible
23 Mar 12.1 02:20:13 10° NNW 02:23:58 18° NNE 02:27:42 10° ENE visible
23 Mar 10.8 04:03:33 10° NNW 04:08:42 41° NE 04:13:48 10° ESE visible
23 Mar 9.7 20:32:32 10° SSW 20:37:42 49° ESE 20:42:55 10° NE visible
23 Mar 10.7 22:16:01 10° WSW 22:21:08 41° NW 22:26:17 10° NNE visible
